Year,Month,Day,Hour,Minute,Value (Times are PST for temperature in C)
2013,08,18,00,00,18.70
2013,08,18,00,01,18.70
2013,08,18,00,02,18.70
2013,08,18,00,03,18.70
2013,08,18,00,04,18.70
2013,08,18,00,05,18.70
2013,08,18,00,06,18.60
2013,08,18,00,07,18.60
2013,08,18,00,08,18.60
2013,08,18,00,09,18.60
2013,08,18,00,10,18.60
2013,08,18,00,11,18.60
2013,08,18,00,12,18.60
2013,08,18,00,13,18.60
2013,08,18,00,14,18.60
2013,08,18,00,15,18.60
2013,08,18,00,16,18.50
2013,08,18,00,17,18.50
2013,08,18,00,18,18.50
2013,08,18,00,19,18.50
2013,08,18,00,20,18.50
2013,08,18,00,21,18.50
2013,08,18,00,22,18.40
2013,08,18,00,23,18.30
2013,08,18,00,24,18.20
2013,08,18,00,25,18.00
2013,08,18,00,26,17.90
2013,08,18,00,27,17.80
2013,08,18,00,28,17.70
2013,08,18,00,29,17.50
2013,08,18,00,30,17.40
2013,08,18,00,31,17.30
2013,08,18,00,32,17.20
2013,08,18,00,33,17.10
2013,08,18,00,34,17.10
2013,08,18,00,35,17.00
2013,08,18,00,36,17.00
2013,08,18,00,37,16.90
2013,08,18,00,38,16.80
2013,08,18,00,39,16.80
2013,08,18,00,40,16.70
2013,08,18,00,41,16.70
2013,08,18,00,42,16.60
2013,08,18,00,43,16.50
2013,08,18,00,44,16.40
2013,08,18,00,45,16.30
2013,08,18,00,46,16.30
2013,08,18,00,47,16.20
2013,08,18,00,48,16.20
2013,08,18,00,49,16.20
2013,08,18,00,50,16.20
2013,08,18,00,51,16.10
2013,08,18,00,52,16.10
2013,08,18,00,53,16.00
2013,08,18,00,54,16.00
2013,08,18,00,55,15.90
2013,08,18,00,56,15.90
2013,08,18,00,57,15.80
2013,08,18,00,58,15.80
2013,08,18,00,59,15.80
2013,08,18,01,00,15.70
2013,08,18,01,01,15.70
2013,08,18,01,02,15.60
2013,08,18,01,03,15.60
2013,08,18,01,04,15.60
2013,08,18,01,05,15.60
2013,08,18,01,06,15.60
2013,08,18,01,07,15.60
2013,08,18,01,08,15.50
2013,08,18,01,09,15.50
2013,08,18,01,10,15.50
2013,08,18,01,11,15.40
2013,08,18,01,12,15.40
2013,08,18,01,13,15.40
2013,08,18,01,14,15.40
2013,08,18,01,15,15.30
2013,08,18,01,16,15.30
2013,08,18,01,17,15.30
2013,08,18,01,18,15.30
2013,08,18,01,19,15.30
2013,08,18,01,20,15.20
2013,08,18,01,21,15.20
2013,08,18,01,22,15.20
2013,08,18,01,23,15.30
2013,08,18,01,24,15.30
2013,08,18,01,25,15.20
2013,08,18,01,26,15.20
2013,08,18,01,27,15.20
2013,08,18,01,28,15.20
2013,08,18,01,29,15.10
2013,08,18,01,30,15.10
2013,08,18,01,31,15.10
2013,08,18,01,32,15.10
2013,08,18,01,33,15.00
2013,08,18,01,34,15.00
2013,08,18,01,35,15.00
2013,08,18,01,36,15.00
2013,08,18,01,37,15.00
2013,08,18,01,38,15.00
2013,08,18,01,39,15.00
2013,08,18,01,40,15.00
2013,08,18,01,41,15.00
2013,08,18,01,42,15.00
2013,08,18,01,43,15.00
2013,08,18,01,44,15.00
2013,08,18,01,45,14.90
2013,08,18,01,46,14.90
2013,08,18,01,47,14.90
2013,08,18,01,48,15.00
2013,08,18,01,49,15.00
2013,08,18,01,50,15.00
2013,08,18,01,51,15.00
2013,08,18,01,52,15.00
2013,08,18,01,53,15.00
2013,08,18,01,54,15.00
2013,08,18,01,55,15.00
2013,08,18,01,56,15.00
2013,08,18,01,57,15.00
2013,08,18,01,58,15.10
2013,08,18,01,59,15.10
2013,08,18,02,00,15.10
2013,08,18,02,01,15.10
2013,08,18,02,02,15.00
2013,08,18,02,03,15.00
2013,08,18,02,04,15.00
2013,08,18,02,05,15.00
2013,08,18,02,06,15.00
2013,08,18,02,07,15.00
2013,08,18,02,08,15.00
2013,08,18,02,09,15.00
2013,08,18,02,10,15.00
2013,08,18,02,11,15.00
2013,08,18,02,12,15.00
2013,08,18,02,13,15.00
2013,08,18,02,14,15.00
2013,08,18,02,15,15.00
2013,08,18,02,16,15.00
2013,08,18,02,17,14.90
2013,08,18,02,18,14.80
2013,08,18,02,19,14.80
2013,08,18,02,20,14.70
2013,08,18,02,21,14.80
2013,08,18,02,22,14.70
2013,08,18,02,23,14.70
2013,08,18,02,24,14.70
2013,08,18,02,25,14.70
2013,08,18,02,26,14.70
2013,08,18,02,27,14.70
2013,08,18,02,28,14.70
2013,08,18,02,29,14.70
2013,08,18,02,30,14.70
2013,08,18,02,31,14.60
2013,08,18,02,32,14.60
2013,08,18,02,33,14.60
2013,08,18,02,34,14.60
2013,08,18,02,35,14.60
2013,08,18,02,36,14.50
2013,08,18,02,37,14.50
2013,08,18,02,38,14.50
2013,08,18,02,39,14.50
2013,08,18,02,40,14.50
2013,08,18,02,41,14.50
2013,08,18,02,42,14.60
2013,08,18,02,43,14.60
2013,08,18,02,44,14.60
2013,08,18,02,45,14.60
2013,08,18,02,46,14.60
2013,08,18,02,47,14.60
2013,08,18,02,48,14.70
2013,08,18,02,49,14.80
2013,08,18,02,50,14.90
2013,08,18,02,51,15.00
2013,08,18,02,52,15.00
2013,08,18,02,53,15.00
2013,08,18,02,54,15.00
2013,08,18,02,55,15.00
2013,08,18,02,56,15.00
2013,08,18,02,57,15.00
2013,08,18,02,58,15.00
2013,08,18,02,59,15.00
2013,08,18,03,00,15.00
2013,08,18,03,01,15.00
2013,08,18,03,02,15.00
2013,08,18,03,03,15.00
2013,08,18,03,04,15.00
2013,08,18,03,05,15.00
2013,08,18,03,06,15.00
2013,08,18,03,07,15.00
2013,08,18,03,08,15.00
2013,08,18,03,09,15.00
2013,08,18,03,10,15.00
2013,08,18,03,11,15.10
2013,08,18,03,12,15.20
2013,08,18,03,13,15.20
2013,08,18,03,14,15.20
2013,08,18,03,15,15.30
2013,08,18,03,16,15.30
2013,08,18,03,17,15.30
2013,08,18,03,18,15.30
2013,08,18,03,19,15.30
2013,08,18,03,20,15.20
2013,08,18,03,21,15.20
2013,08,18,03,22,15.20
2013,08,18,03,23,15.20
2013,08,18,03,24,15.10
2013,08,18,03,25,15.10
2013,08,18,03,26,15.00
2013,08,18,03,27,15.00
2013,08,18,03,28,15.00
2013,08,18,03,29,15.00
2013,08,18,03,30,15.00
2013,08,18,03,31,15.00
2013,08,18,03,32,15.00
2013,08,18,03,33,15.00
2013,08,18,03,34,15.00
2013,08,18,03,35,15.00
2013,08,18,03,36,15.00
2013,08,18,03,37,15.00
2013,08,18,03,38,15.00
2013,08,18,03,39,15.00
2013,08,18,03,40,15.00
2013,08,18,03,41,15.00
2013,08,18,03,42,15.00
2013,08,18,03,43,15.00
2013,08,18,03,44,15.00
2013,08,18,03,45,15.00
2013,08,18,03,46,15.00
2013,08,18,03,47,15.00
2013,08,18,03,48,15.00
2013,08,18,03,49,15.00
2013,08,18,03,50,15.00
2013,08,18,03,51,15.00
2013,08,18,03,52,15.00
2013,08,18,03,53,15.00
2013,08,18,03,54,15.10
2013,08,18,03,55,15.10
2013,08,18,03,56,15.10
2013,08,18,03,57,15.20
2013,08,18,03,58,15.30
2013,08,18,03,59,15.40
2013,08,18,04,00,15.40
2013,08,18,04,01,15.50
2013,08,18,04,02,15.50
2013,08,18,04,03,15.60
2013,08,18,04,04,15.60
2013,08,18,04,05,15.60
2013,08,18,04,06,15.60
2013,08,18,04,07,15.60
2013,08,18,04,08,15.60
2013,08,18,04,09,15.70
2013,08,18,04,10,15.70
2013,08,18,04,11,15.80
2013,08,18,04,12,15.80
2013,08,18,04,13,15.80
2013,08,18,04,14,15.90
2013,08,18,04,15,15.90
2013,08,18,04,16,16.00
2013,08,18,04,17,16.20
2013,08,18,04,18,16.30
2013,08,18,04,19,16.40
2013,08,18,04,20,16.50
2013,08,18,04,21,16.70
2013,08,18,04,22,16.80
2013,08,18,04,23,16.80
2013,08,18,04,24,16.90
2013,08,18,04,25,16.90
2013,08,18,04,26,16.90
2013,08,18,04,27,16.90
2013,08,18,04,28,16.90
2013,08,18,04,29,16.90
2013,08,18,04,30,16.90
2013,08,18,04,31,17.00
2013,08,18,04,32,17.00
2013,08,18,04,33,17.00
2013,08,18,04,34,17.10
2013,08,18,04,35,17.10
2013,08,18,04,36,17.10
2013,08,18,04,37,17.10
2013,08,18,04,38,17.10
2013,08,18,04,39,17.10
2013,08,18,04,40,17.10
2013,08,18,04,41,17.10
2013,08,18,04,42,17.10
2013,08,18,04,43,17.10
2013,08,18,04,44,17.00
2013,08,18,04,45,17.00
2013,08,18,04,46,17.00
2013,08,18,04,47,16.90
2013,08,18,04,48,16.90
2013,08,18,04,49,16.90
2013,08,18,04,50,16.90
2013,08,18,04,51,16.90
2013,08,18,04,52,16.90
2013,08,18,04,53,16.90
2013,08,18,04,54,16.90
2013,08,18,04,55,16.90
2013,08,18,04,56,16.90
2013,08,18,04,57,16.90
2013,08,18,04,58,16.90
2013,08,18,04,59,16.90
2013,08,18,05,00,16.90
2013,08,18,05,01,16.90
2013,08,18,05,02,16.90
2013,08,18,05,03,16.80
2013,08,18,05,04,16.80
2013,08,18,05,05,16.80
2013,08,18,05,06,16.80
2013,08,18,05,07,16.80
2013,08,18,05,08,16.80
2013,08,18,05,09,16.80
2013,08,18,05,10,16.80
2013,08,18,05,11,16.80
2013,08,18,05,12,16.80
2013,08,18,05,13,16.80
2013,08,18,05,14,16.80
2013,08,18,05,15,16.80
2013,08,18,05,16,16.80
2013,08,18,05,17,16.80
2013,08,18,05,18,16.80
2013,08,18,05,19,16.80
2013,08,18,05,20,16.80
2013,08,18,05,21,16.80
2013,08,18,05,22,16.80
2013,08,18,05,23,16.80
2013,08,18,05,24,16.80
2013,08,18,05,25,16.80
2013,08,18,05,26,16.80
2013,08,18,05,27,16.80
2013,08,18,05,28,16.80
2013,08,18,05,29,16.80
2013,08,18,05,30,16.80
2013,08,18,05,31,16.80
2013,08,18,05,32,16.80
2013,08,18,05,33,16.80
2013,08,18,05,34,16.80
2013,08,18,05,35,16.80
2013,08,18,05,36,16.80
2013,08,18,05,37,16.90
2013,08,18,05,38,17.00
2013,08,18,05,39,17.00
2013,08,18,05,40,17.10
2013,08,18,05,41,17.10
2013,08,18,05,42,17.10
2013,08,18,05,43,17.10
2013,08,18,05,44,17.10
2013,08,18,05,45,17.00
2013,08,18,05,46,17.00
2013,08,18,05,47,17.10
2013,08,18,05,48,17.10
2013,08,18,05,49,17.10
2013,08,18,05,50,17.10
2013,08,18,05,51,17.10
2013,08,18,05,52,17.10
2013,08,18,05,53,17.10
2013,08,18,05,54,17.10
2013,08,18,05,55,17.10
2013,08,18,05,56,17.00
2013,08,18,05,57,16.80
2013,08,18,05,58,16.70
2013,08,18,05,59,16.60
2013,08,18,06,00,16.40
2013,08,18,06,01,16.20
2013,08,18,06,02,16.00
2013,08,18,06,03,15.80
2013,08,18,06,04,15.70
2013,08,18,06,05,15.70
2013,08,18,06,06,15.60
2013,08,18,06,07,15.60
2013,08,18,06,08,15.50
2013,08,18,06,09,15.40
2013,08,18,06,10,15.30
2013,08,18,06,11,15.10
2013,08,18,06,12,15.00
2013,08,18,06,13,15.00
2013,08,18,06,14,15.00
2013,08,18,06,15,15.00
2013,08,18,06,16,14.90
2013,08,18,06,17,14.80
2013,08,18,06,18,14.80
2013,08,18,06,19,14.80
2013,08,18,06,20,14.80
2013,08,18,06,21,14.70
2013,08,18,06,22,14.70
2013,08,18,06,23,14.70
2013,08,18,06,24,14.70
2013,08,18,06,25,14.70
2013,08,18,06,26,14.70
2013,08,18,06,27,14.70
2013,08,18,06,28,14.70
2013,08,18,06,29,14.80
2013,08,18,06,30,14.80
2013,08,18,06,31,14.80
2013,08,18,06,32,14.80
2013,08,18,06,33,14.90
2013,08,18,06,34,14.90
2013,08,18,06,35,15.00
2013,08,18,06,36,15.00
2013,08,18,06,37,15.00
2013,08,18,06,38,15.00
2013,08,18,06,39,15.00
2013,08,18,06,40,15.00
2013,08,18,06,41,15.00
2013,08,18,06,42,15.00
2013,08,18,06,43,15.00
2013,08,18,06,44,15.10
2013,08,18,06,45,15.10
2013,08,18,06,46,15.10
2013,08,18,06,47,15.20
2013,08,18,06,48,15.20
2013,08,18,06,49,15.20
2013,08,18,06,50,15.30
2013,08,18,06,51,15.30
2013,08,18,06,52,15.30
2013,08,18,06,53,15.30
2013,08,18,06,54,15.40
2013,08,18,06,55,15.40
2013,08,18,06,56,15.40
2013,08,18,06,57,15.40
2013,08,18,06,58,15.40
2013,08,18,06,59,15.40
2013,08,18,07,00,15.50
2013,08,18,07,01,15.50
2013,08,18,07,02,15.50
2013,08,18,07,03,15.50
2013,08,18,07,04,15.60
2013,08,18,07,05,15.60
2013,08,18,07,06,15.60
2013,08,18,07,07,15.60
2013,08,18,07,08,15.60
2013,08,18,07,09,15.60
2013,08,18,07,10,15.60
2013,08,18,07,11,15.60
2013,08,18,07,12,15.70
2013,08,18,07,13,15.60
2013,08,18,07,14,15.60
2013,08,18,07,15,15.60
2013,08,18,07,16,15.70
2013,08,18,07,17,15.70
2013,08,18,07,18,15.70
2013,08,18,07,19,15.70
2013,08,18,07,20,15.70
2013,08,18,07,21,15.80
2013,08,18,07,22,15.80
2013,08,18,07,23,15.80
2013,08,18,07,24,15.80
2013,08,18,07,25,15.90
2013,08,18,07,26,15.90
2013,08,18,07,27,15.90
2013,08,18,07,28,16.00
2013,08,18,07,29,16.00
2013,08,18,07,30,16.10
2013,08,18,07,31,16.10
2013,08,18,07,32,16.10
2013,08,18,07,33,16.20
2013,08,18,07,34,16.20
2013,08,18,07,35,16.20
2013,08,18,07,36,16.20
2013,08,18,07,37,16.20
2013,08,18,07,38,16.20
2013,08,18,07,39,16.20
2013,08,18,07,40,16.20
2013,08,18,07,41,16.20
2013,08,18,07,42,16.20
2013,08,18,07,43,16.10
2013,08,18,07,44,16.00
2013,08,18,07,45,16.00
2013,08,18,07,46,15.90
2013,08,18,07,47,15.90
2013,08,18,07,48,15.80
2013,08,18,07,49,15.70
2013,08,18,07,50,15.70
2013,08,18,07,51,15.60
2013,08,18,07,52,15.50
2013,08,18,07,53,15.50
2013,08,18,07,54,15.40
2013,08,18,07,55,15.40
2013,08,18,07,56,15.40
2013,08,18,07,57,15.40
2013,08,18,07,58,15.30
2013,08,18,07,59,15.30
2013,08,18,08,00,15.30
2013,08,18,08,01,15.30
2013,08,18,08,02,15.30
2013,08,18,08,03,15.30
2013,08,18,08,04,15.30
2013,08,18,08,05,15.30
2013,08,18,08,06,15.30
2013,08,18,08,07,15.30
2013,08,18,08,08,15.30
2013,08,18,08,09,15.30
2013,08,18,08,10,15.30
2013,08,18,08,11,15.20
2013,08,18,08,12,15.10
2013,08,18,08,13,15.00
2013,08,18,08,14,15.00
2013,08,18,08,15,15.00
2013,08,18,08,16,14.90
2013,08,18,08,17,14.80
2013,08,18,08,18,14.80
2013,08,18,08,19,14.70
2013,08,18,08,20,14.60
2013,08,18,08,21,14.50
2013,08,18,08,22,14.50
2013,08,18,08,23,14.40
2013,08,18,08,24,14.40
2013,08,18,08,25,14.30
2013,08,18,08,26,14.30
2013,08,18,08,27,14.20
2013,08,18,08,28,14.20
2013,08,18,08,29,14.20
2013,08,18,08,30,14.20
2013,08,18,08,31,14.20
2013,08,18,08,32,14.20
2013,08,18,08,33,14.20
2013,08,18,08,34,14.10
2013,08,18,08,35,14.10
2013,08,18,08,36,14.10
2013,08,18,08,37,14.10
2013,08,18,08,38,14.10
2013,08,18,08,39,14.10
2013,08,18,08,40,14.10
2013,08,18,08,41,14.10
2013,08,18,08,42,14.10
2013,08,18,08,43,14.10
2013,08,18,08,44,14.10
2013,08,18,08,45,14.10
2013,08,18,08,46,14.10
2013,08,18,08,47,14.20
2013,08,18,08,48,14.20
2013,08,18,08,49,14.20
2013,08,18,08,50,14.30
2013,08,18,08,51,14.30
2013,08,18,08,52,14.40
2013,08,18,08,53,14.40
2013,08,18,08,54,14.40
2013,08,18,08,55,14.50
2013,08,18,08,56,14.60
2013,08,18,08,57,14.60
2013,08,18,08,58,14.60
2013,08,18,08,59,14.70
2013,08,18,09,00,14.70
2013,08,18,09,01,14.80
2013,08,18,09,02,14.80
2013,08,18,09,03,14.80
2013,08,18,09,04,14.80
2013,08,18,09,05,14.80
2013,08,18,09,06,14.70
2013,08,18,09,07,14.70
2013,08,18,09,08,14.70
2013,08,18,09,09,14.70
2013,08,18,09,10,14.70
2013,08,18,09,11,14.70
2013,08,18,09,12,14.70
2013,08,18,09,13,14.70
2013,08,18,09,14,14.70
2013,08,18,09,15,14.70
2013,08,18,09,16,14.80
2013,08,18,09,17,14.80
2013,08,18,09,18,14.80
2013,08,18,09,19,14.90
2013,08,18,09,20,14.90
2013,08,18,09,21,15.00
2013,08,18,09,22,15.00
2013,08,18,09,23,15.00
2013,08,18,09,24,15.00
2013,08,18,09,25,15.00
2013,08,18,09,26,15.00
2013,08,18,09,27,15.00
2013,08,18,09,28,15.00
2013,08,18,09,29,15.00
2013,08,18,09,30,15.00
2013,08,18,09,31,15.00
2013,08,18,09,32,15.00
2013,08,18,09,33,15.00
2013,08,18,09,34,15.00
2013,08,18,09,35,15.00
2013,08,18,09,36,15.00
2013,08,18,09,37,15.00
2013,08,18,09,38,15.00
2013,08,18,09,39,15.00
2013,08,18,09,40,15.10
2013,08,18,09,41,15.20
2013,08,18,09,42,15.30
2013,08,18,09,43,15.40
2013,08,18,09,44,15.50
2013,08,18,09,45,15.50
2013,08,18,09,46,15.60
2013,08,18,09,47,15.70
2013,08,18,09,48,15.80
2013,08,18,09,49,15.80
2013,08,18,09,50,15.90
2013,08,18,09,51,16.10
2013,08,18,09,52,16.20
2013,08,18,09,53,16.30
2013,08,18,09,54,16.40
2013,08,18,09,55,16.50
2013,08,18,09,56,16.60
2013,08,18,09,57,16.80
2013,08,18,09,58,16.90
2013,08,18,09,59,17.00
2013,08,18,10,00,17.10
2013,08,18,10,01,17.20
2013,08,18,10,02,17.30
2013,08,18,10,03,17.40
2013,08,18,10,04,17.50
2013,08,18,10,05,17.60
2013,08,18,10,06,17.60
2013,08,18,10,07,17.70
2013,08,18,10,08,17.80
2013,08,18,10,09,17.80
2013,08,18,10,10,17.90
2013,08,18,10,11,18.00
2013,08,18,10,12,18.10
2013,08,18,10,13,18.20
2013,08,18,10,14,18.30
2013,08,18,10,15,18.40
2013,08,18,10,16,18.60
2013,08,18,10,17,18.70
2013,08,18,10,18,18.90
2013,08,18,10,19,19.10
2013,08,18,10,20,19.30
2013,08,18,10,21,19.40
2013,08,18,10,22,19.50
2013,08,18,10,23,19.60
2013,08,18,10,24,19.70
2013,08,18,10,25,19.80
2013,08,18,10,26,19.80
2013,08,18,10,27,19.80
2013,08,18,10,28,19.90
2013,08,18,10,29,19.90
2013,08,18,10,30,19.90
2013,08,18,10,31,19.90
2013,08,18,10,32,20.00
2013,08,18,10,33,20.00
2013,08,18,10,34,20.00
2013,08,18,10,35,20.00
2013,08,18,10,36,20.10
2013,08,18,10,37,20.10
2013,08,18,10,38,20.20
2013,08,18,10,39,20.30
2013,08,18,10,40,20.30
2013,08,18,10,41,20.30
2013,08,18,10,42,20.40
2013,08,18,10,43,20.40
2013,08,18,10,44,20.40
2013,08,18,10,45,20.40
2013,08,18,10,46,20.40
2013,08,18,10,47,20.40
2013,08,18,10,48,20.40
2013,08,18,10,49,20.40
2013,08,18,10,50,20.50
2013,08,18,10,51,20.50
2013,08,18,10,52,20.50
2013,08,18,10,53,20.50
2013,08,18,10,54,20.60
2013,08,18,10,55,20.60
2013,08,18,10,56,20.70
2013,08,18,10,57,20.70
2013,08,18,10,58,20.70
2013,08,18,10,59,20.70
2013,08,18,11,00,20.70
2013,08,18,11,01,20.60
2013,08,18,11,02,20.60
2013,08,18,11,03,20.60
2013,08,18,11,04,20.60
2013,08,18,11,05,20.60
2013,08,18,11,06,20.70
2013,08,18,11,07,20.70
2013,08,18,11,08,20.60
2013,08,18,11,09,20.50
2013,08,18,11,10,20.40
2013,08,18,11,11,20.40
2013,08,18,11,12,20.40
2013,08,18,11,13,20.30
2013,08,18,11,14,20.30
2013,08,18,11,15,20.30
2013,08,18,11,16,20.30
2013,08,18,11,17,20.30
2013,08,18,11,18,20.30
2013,08,18,11,19,20.30
2013,08,18,11,20,20.30
2013,08,18,11,21,20.30
2013,08,18,11,22,20.20
2013,08,18,11,23,20.20
2013,08,18,11,24,20.20
2013,08,18,11,25,20.10
2013,08,18,11,26,20.10
2013,08,18,11,27,20.10
2013,08,18,11,28,20.10
2013,08,18,11,29,20.00
2013,08,18,11,30,20.00
2013,08,18,11,31,20.00
2013,08,18,11,32,19.90
2013,08,18,11,33,19.90
2013,08,18,11,34,19.80
2013,08,18,11,35,19.60
2013,08,18,11,36,19.30
2013,08,18,11,37,19.10
2013,08,18,11,38,19.00
2013,08,18,11,39,18.80
2013,08,18,11,40,18.60
2013,08,18,11,41,18.50
2013,08,18,11,42,18.50
2013,08,18,11,43,18.40
2013,08,18,11,44,18.30
2013,08,18,11,45,18.30
2013,08,18,11,46,18.30
2013,08,18,11,47,18.30
2013,08,18,11,48,18.20
2013,08,18,11,49,18.30
2013,08,18,11,50,18.30
2013,08,18,11,51,18.30
2013,08,18,11,52,18.30
2013,08,18,11,53,18.20
2013,08,18,11,54,18.20
2013,08,18,11,55,18.10
2013,08,18,11,56,18.10
2013,08,18,11,57,18.10
2013,08,18,11,58,18.10
2013,08,18,11,59,18.00
2013,08,18,12,00,17.90
2013,08,18,12,01,17.90
2013,08,18,12,02,17.90
2013,08,18,12,03,17.90
2013,08,18,12,04,17.90
2013,08,18,12,05,17.80
2013,08,18,12,06,17.80
2013,08,18,12,07,17.80
2013,08,18,12,08,17.80
2013,08,18,12,09,17.80
2013,08,18,12,10,17.80
2013,08,18,12,11,17.80
2013,08,18,12,12,17.70
2013,08,18,12,13,17.60
2013,08,18,12,14,17.50
2013,08,18,12,15,17.50
2013,08,18,12,16,17.40
2013,08,18,12,17,17.30
2013,08,18,12,18,17.20
2013,08,18,12,19,17.20
2013,08,18,12,20,17.20
2013,08,18,12,21,17.10
2013,08,18,12,22,17.10
2013,08,18,12,23,17.10
2013,08,18,12,24,17.10
2013,08,18,12,25,17.10
2013,08,18,12,26,17.10
2013,08,18,12,27,17.20
2013,08,18,12,28,17.20
2013,08,18,12,29,17.10
2013,08,18,12,30,17.10
2013,08,18,12,31,17.10
2013,08,18,12,32,17.10
2013,08,18,12,33,17.10
2013,08,18,12,34,17.10
2013,08,18,12,35,17.10
2013,08,18,12,36,17.10
2013,08,18,12,37,17.10
2013,08,18,12,38,17.10
2013,08,18,12,39,17.10
2013,08,18,12,40,17.10
2013,08,18,12,41,17.00
2013,08,18,12,42,17.00
2013,08,18,12,43,17.00
2013,08,18,12,44,16.90
2013,08,18,12,45,16.90
2013,08,18,12,46,16.90
2013,08,18,12,47,16.90
2013,08,18,12,48,17.00
2013,08,18,12,49,17.00
2013,08,18,12,50,17.00
2013,08,18,12,51,17.10
2013,08,18,12,52,17.10
2013,08,18,12,53,17.00
2013,08,18,12,54,17.00
2013,08,18,12,55,17.00
2013,08,18,12,56,16.90
2013,08,18,12,57,16.90
2013,08,18,12,58,16.90
2013,08,18,12,59,16.90
2013,08,18,13,00,16.90
2013,08,18,13,01,16.90
2013,08,18,13,02,16.90
2013,08,18,13,03,16.90
2013,08,18,13,04,16.90
2013,08,18,13,05,16.90
2013,08,18,13,06,17.00
2013,08,18,13,07,17.00
2013,08,18,13,08,17.10
2013,08,18,13,09,17.10
2013,08,18,13,10,17.20
2013,08,18,13,11,17.20
2013,08,18,13,12,17.30
2013,08,18,13,13,17.40
2013,08,18,13,14,17.50
2013,08,18,13,15,17.60
2013,08,18,13,16,17.70
2013,08,18,13,17,17.70
2013,08,18,13,18,17.80
2013,08,18,13,19,17.80
2013,08,18,13,20,17.80
2013,08,18,13,21,17.80
2013,08,18,13,22,17.70
2013,08,18,13,23,17.60
2013,08,18,13,24,17.50
2013,08,18,13,25,17.40
2013,08,18,13,26,17.30
2013,08,18,13,27,17.10
2013,08,18,13,28,17.00
2013,08,18,13,29,16.90
2013,08,18,13,30,16.80
2013,08,18,13,31,16.70
2013,08,18,13,32,16.70
2013,08,18,13,33,16.60
2013,08,18,13,34,16.60
2013,08,18,13,35,16.60
2013,08,18,13,36,16.60
2013,08,18,13,37,16.60
2013,08,18,13,38,16.70
2013,08,18,13,39,16.70
2013,08,18,13,40,16.80
2013,08,18,13,41,16.80
2013,08,18,13,42,16.90
2013,08,18,13,43,17.00
2013,08,18,13,44,17.00
2013,08,18,13,45,17.10
2013,08,18,13,46,17.10
2013,08,18,13,47,17.10
2013,08,18,13,48,17.10
2013,08,18,13,49,17.10
2013,08,18,13,50,17.10
2013,08,18,13,51,17.10
2013,08,18,13,52,17.00
2013,08,18,13,53,17.00
2013,08,18,13,54,16.90
2013,08,18,13,55,16.90
2013,08,18,13,56,16.80
2013,08,18,13,57,16.80
2013,08,18,13,58,16.80
2013,08,18,13,59,16.70
2013,08,18,14,00,16.70
2013,08,18,14,01,16.70
2013,08,18,14,02,16.60
2013,08,18,14,03,16.50
2013,08,18,14,04,16.50
2013,08,18,14,05,16.40
2013,08,18,14,06,16.40
2013,08,18,14,07,16.30
2013,08,18,14,08,16.30
2013,08,18,14,09,16.30
2013,08,18,14,10,16.30
2013,08,18,14,11,16.30
2013,08,18,14,12,16.40
2013,08,18,14,13,16.40
2013,08,18,14,14,16.40
2013,08,18,14,15,16.40
2013,08,18,14,16,16.40
2013,08,18,14,17,16.40
2013,08,18,14,18,16.40
2013,08,18,14,19,16.40
2013,08,18,14,20,16.30
2013,08,18,14,21,16.30
2013,08,18,14,22,16.30
2013,08,18,14,23,16.30
2013,08,18,14,24,16.30
2013,08,18,14,25,16.30
2013,08,18,14,26,16.30
2013,08,18,14,27,16.40
2013,08,18,14,28,16.30
2013,08,18,14,29,16.40
2013,08,18,14,30,16.40
2013,08,18,14,31,16.40
2013,08,18,14,32,16.50
2013,08,18,14,33,16.50
2013,08,18,14,34,16.60
2013,08,18,14,35,16.60
2013,08,18,14,36,16.70
2013,08,18,14,37,16.70
2013,08,18,14,38,16.80
2013,08,18,14,39,16.80
2013,08,18,14,40,16.80
2013,08,18,14,41,16.70
2013,08,18,14,42,16.70
2013,08,18,14,43,16.60
2013,08,18,14,44,16.60
2013,08,18,14,45,16.60
2013,08,18,14,46,16.60
2013,08,18,14,47,16.60
2013,08,18,14,48,16.60
2013,08,18,14,49,16.70
2013,08,18,14,50,16.80
2013,08,18,14,51,16.80
2013,08,18,14,52,16.90
2013,08,18,14,53,17.00
2013,08,18,14,54,17.00
2013,08,18,14,55,17.10
2013,08,18,14,56,17.10
2013,08,18,14,57,17.10
2013,08,18,14,58,17.10
2013,08,18,14,59,17.10
2013,08,18,15,00,17.10
2013,08,18,15,01,17.20
2013,08,18,15,02,17.20
2013,08,18,15,03,17.10
2013,08,18,15,04,17.10
2013,08,18,15,05,17.10
2013,08,18,15,06,17.10
2013,08,18,15,07,17.10
2013,08,18,15,08,17.10
2013,08,18,15,09,17.20
2013,08,18,15,10,17.30
2013,08,18,15,11,17.40
2013,08,18,15,12,17.40
2013,08,18,15,13,17.50
2013,08,18,15,14,17.60
2013,08,18,15,15,17.60
2013,08,18,15,16,17.70
2013,08,18,15,17,17.80
2013,08,18,15,18,17.80
2013,08,18,15,19,17.80
2013,08,18,15,20,17.80
2013,08,18,15,21,17.80
2013,08,18,15,22,17.70
2013,08,18,15,23,17.80
2013,08,18,15,24,17.80
2013,08,18,15,25,17.70
2013,08,18,15,26,17.70
2013,08,18,15,27,17.60
2013,08,18,15,28,17.60
2013,08,18,15,29,17.50
2013,08,18,15,30,17.50
2013,08,18,15,31,17.50
2013,08,18,15,32,17.50
2013,08,18,15,33,17.50
2013,08,18,15,34,17.50
2013,08,18,15,35,17.50
2013,08,18,15,36,17.50
2013,08,18,15,37,17.60
2013,08,18,15,38,17.70
2013,08,18,15,39,17.90
2013,08,18,15,40,18.00
2013,08,18,15,41,18.10
2013,08,18,15,42,18.10
2013,08,18,15,43,18.00
2013,08,18,15,44,17.90
2013,08,18,15,45,17.90
2013,08,18,15,46,17.90
2013,08,18,15,47,18.00
2013,08,18,15,48,18.10
2013,08,18,15,49,18.10
2013,08,18,15,50,18.10
2013,08,18,15,51,18.10
2013,08,18,15,52,18.10
2013,08,18,15,53,18.20
2013,08,18,15,54,18.20
2013,08,18,15,55,18.20
2013,08,18,15,56,18.10
2013,08,18,15,57,18.10
2013,08,18,15,58,18.20
2013,08,18,15,59,18.20
2013,08,18,16,00,18.30
2013,08,18,16,01,18.40
2013,08,18,16,02,18.50
2013,08,18,16,03,18.50
2013,08,18,16,04,18.40
2013,08,18,16,05,18.40
2013,08,18,16,06,18.30
2013,08,18,16,07,18.30
2013,08,18,16,08,18.50
2013,08,18,16,09,18.60
2013,08,18,16,10,18.80
2013,08,18,16,11,18.90
2013,08,18,16,12,19.10
2013,08,18,16,13,19.30
2013,08,18,16,14,19.40
2013,08,18,16,15,19.60
2013,08,18,16,16,19.80
2013,08,18,16,17,19.90
2013,08,18,16,18,20.00
2013,08,18,16,19,20.10
2013,08,18,16,20,20.20
2013,08,18,16,21,20.30
2013,08,18,16,22,20.40
2013,08,18,16,23,20.60
2013,08,18,16,24,20.90
2013,08,18,16,25,21.30
2013,08,18,16,26,21.70
2013,08,18,16,27,22.00
2013,08,18,16,28,22.20
2013,08,18,16,29,22.40
2013,08,18,16,30,22.50
2013,08,18,16,31,22.60
2013,08,18,16,32,22.60
2013,08,18,16,33,22.60
2013,08,18,16,34,22.50
2013,08,18,16,35,22.30
2013,08,18,16,36,22.10
2013,08,18,16,37,21.90
2013,08,18,16,38,21.70
2013,08,18,16,39,21.60
2013,08,18,16,40,21.50
2013,08,18,16,41,21.50
2013,08,18,16,42,21.60
2013,08,18,16,43,21.80
2013,08,18,16,44,22.10
2013,08,18,16,45,22.30
2013,08,18,16,46,22.40
2013,08,18,16,47,22.60
2013,08,18,16,48,22.70
2013,08,18,16,49,22.80
2013,08,18,16,50,22.90
2013,08,18,16,51,23.00
2013,08,18,16,52,23.10
2013,08,18,16,53,23.20
2013,08,18,16,54,23.30
2013,08,18,16,55,23.40
2013,08,18,16,56,23.40
2013,08,18,16,57,23.50
2013,08,18,16,58,23.50
2013,08,18,16,59,23.40
2013,08,18,17,00,23.40
2013,08,18,17,01,23.40
2013,08,18,17,02,23.30
2013,08,18,17,03,23.30
2013,08,18,17,04,23.30
2013,08,18,17,05,23.30
2013,08,18,17,06,23.30
2013,08,18,17,07,23.30
2013,08,18,17,08,23.30
2013,08,18,17,09,23.30
2013,08,18,17,10,23.20
2013,08,18,17,11,23.20
2013,08,18,17,12,23.30
2013,08,18,17,13,23.30
2013,08,18,17,14,23.30
2013,08,18,17,15,23.40
2013,08,18,17,16,23.40
2013,08,18,17,17,23.30
2013,08,18,17,18,23.30
2013,08,18,17,19,23.20